Probability
33 36 36 37 42 46 45 43 43 43 41 38 34 30 28 29 29 25 20 16 15 17 20 21 21 23 25 27 31 35 29 21 19 14 8 4 3 3 2 2 1 0 0
30 31 31 33 37 37 33 31 32 34 31 28 27 27 26 24 22 21 20 17 14 14 16 18 20 23 24 24 29 32 26 19 18 15 9 5 3 3 2 1 0 0 0
23 24 25 26 28 26 20 18 20 21 18 15 18 22 22 18 17 19 17 15 12 10 11 14 19 24 25 24 27 28 24 19 18 17 12 6 4 3 3 1 1 1 0
14 16 18 17 17 16 12 11 13 13 9 7 10 14 15 12 12 14 14 12 9 9 9 11 17 22 24 27 27 26 24 23 21 19 14 9 5 4 3 2 2 2 1
7 10 10 9 8 8 7 8 10 10 7 6 7 7 6 6 7 8 9 9 8 7 8 9 12 16 20 24 26 27 28 27 25 21 18 13 9 5 3 2 3 3 3
5 6 5 4 4 4 4 5 7 9 9 9 8 7 5 5 6 6 6 6 5 5 5 6 7 9 12 15 21 25 28 28 28 26 24 20 14 8 5 3 3 3 2
3 4 3 1 2 2 1 2 3 6 7 8 9 10 9 8 8 7 6 4 3 2 2 3 3 4 6 9 14 19 21 25 29 30 31 28 22 17 13 9 5 3 1
1 1 1 0 1 1 0 0 2 5 6 7 9 11 11 11 10 9 6 4 2 1 1 1 1 1 2 4 7 12 15 20 26 28 32 36 33 31 27 20 13 7 3
1 1 0 0 0 0 0 1 4 7 8 9 10 10 11 11 10 9 7 4 2 1 0 0 0 0 0 0 3 7 10 14 19 22 29 38 41 40 38 33 25 17 11
0 0 0 0 0 0 0 1 3 6 8 9 9 8 8 9 8 6 4 2 1 0 0 0 0 0 0 0 1 3 5 7 11 15 21 28 35 40 42 42 38 30 22
0 0 0 0 0 0 0 0 1 3 5 5 6 6 6 6 5 3 1 0 0 1 1 0 0 0 0 0 0 1 1 2 5 9 12 16 24 31 36 41 45 42 37
0 0 0 0 0 0 0 0 1 2 2 3 3 4 5 5 5 3 1 0 0 1 1 1 0 0 0 0 0 0 0 1 2 4 6 10 14 20 26 33 40 44 43
0 0 0 0 0 0 0 0 0 1 1 1 1 2 4 4 5 4 2 1 1 1 1 1 0 0 0 0 0 0 0 0 1 1 4 6 9 13 19 25 31 35 37
0 0 0 0 0 0 0 0 0 0 0 0 0 1 2 3 4 5 4 3 3 2 1 1 1 0 0 0 0 0 0 0 0 0 1 3 5 8 12 18 24 28 31
0 0 0 0 0 0 0 0 0 0 0 0 0 0 1 3 6 7 6 6 5 3 1 1 1 0 0 0 0 0 0 0 0 0 0 1 2 3 5 9 15 22 26
0 0 0 0 0 0 0 0 0 0 0 0 0 0 1 3 5 6 6 6 6 5 3 2 1 0 0 0 0 0 0 0 0 0 0 0 0 1 1 2 5 10 15
0 0 0 0 0 0 0 0 0 0 0 0 0 0 0 1 2 3 3 4 5 6 5 3 1 0 0 0 0 0 0 0 0 0 0 0 0 0 0 0 0 2 4
0 0 0 0 0 0 0 0 0 0 0 0 0 0 0 0 0 1 1 3 4 5 5 3 0 0 0 0 0 0 0 0 0 0 0 0 0 0 0 0 1 3 3
0 0 0 0 0 0 0 0 0 0 0 0 0 0 0 0 0 0 1 1 2 3 3 1 0 0 0 0 0 0 0 0 0 0 0 0 0 0 0 0 1 4 6
0 0 0 0 0 0 0 0 0 0 0 0 0 0 0 0 0 0 0 0 1 1 1 0 0 0 0 0 0 0 0 0 0 0 0 0 0 0 0 0 1 3 6
0 0 0 0 0 0 0 0 0 0 0 0 0 0 0 0 0 0 0 0 0 0 0 0 0 0 0 0 0 0 0 0 0 0 0 0 0 0 0 0 0 1 3
0 0 0 0 0 0 0 0 0 0 0 0 0 0 0 0 0 0 0 0 0 0 0 0 0 0 0 0 0 0 0 0 0 0 0 0 0 0 0 0 0 0 1
0 0 0 0 0 0 0 0 0 0 0 0 0 0 0 0 0 0 0 0 0 0 0 0 0 0 0 0 0 0 0 0 0 0 0 0 0 0 0 0 0 0 1
0 0 0 0 0 0 0 0 0 0 0 0 0 0 0 0 0 0 0 0 0 0 0 0 0 0 0 0 0 0 0 0 0 0 0 0 0 0 0 0 0 0 1
0 0 0 0 0 0 0 0 0 0 0 0 0 0 0 0 0 0 0 0 0 0 0 0 0 0 0 0 0 0 0 0 0 0 0 0 0 0 0 0 0 0 1
0 0 0 0 0 0 0 0 0 0 0 0 0 0 0 0 0 0 0 0 0 0 0 0 0 0 0 0 0 0 0 0 0 0 0 0 0 0 0 0 0 0 0
Wind_Speed
8 8 7 7 6 6 5 4 2 1 0 1 3 4 4 4 4 3 4 6 7 8 8 8 7 7 6 7 7 6 7 7 5 6 7 7 8 7 6 7 7 8 9
7 7 6 6 6 5 4 3 2 1 1 2 3 3 3 2 2 2 3 5 6 6 7 8 6 6 5 7 7 7 7 6 5 5 5 5 6 6 6 6 7 7 6
6 6 6 6 5 4 3 2 1 1 2 3 3 2 2 3 2 2 2 3 3 4 5 6 6 6 7 7 7 8 9 7 6 6 6 5 4 4 5 6 5 5 5
5 4 4 4 4 3 2 2 1 1 1 2 2 2 2 2 2 2 1 2 2 2 3 4 4 5 6 6 8 9 7 8 7 6 6 6 5 4 4 6 6 6 6
4 3 2 2 2 1 1 0 0 1 2 3 2 3 2 2 1 2 1 2 1 2 2 2 3 4 5 6 7 6 7 7 8 6 6 7 5 7 6 4 5 6 6
2 1 1 1 2 2 3 2 2 3 3 4 4 4 3 3 3 3 3 3 2 2 2 2 2 3 4 4 5 5 8 7 8 7 7 6 7 7 7 6 6 5 4
0 1 2 4 4 5 5 5 5 5 5 5 5 5 5 5 5 5 4 4 3 3 2 2 2 2 3 4 4 5 7 7 8 9 7 7 8 6 6 7 6 5 4
2 4 5 6 7 7 7 7 7 8 7 8 7 7 7 7 6 6 6 5 4 4 3 4 4 4 3 4 4 5 6 6 7 9 9 7 7 7 7 7 7 6 6
4 6 7 8 8 9 9 9 9 9 9 10 10 10 10 10 9 8 8 7 6 5 6 6 6 5 5 5 5 5 5 5 7 8 8 8 6 7 7 7 7 7 7
7 8 9 9 9 10 10 10 10 10 11 12 11 10 11 11 10 11 10 10 9 8 8 8 8 7 7 6 6 6 5 6 6 6 7 7 6 6 6 7 7 7 8
10 11 10 10 11 11 12 11 12 12 12 13 13 13 13 13 12 12 13 12 12 11 11 10 10 10 9 8 8 8 7 8 7 7 7 7 7 6 6 6 7 7 7
12 13 13 12 13 13 13 13 13 13 13 13 13 14 14 14 14 14 14 14 14 13 13 13 12 12 11 10 10 11 10 9 9 9 8 8 7 8 7 6 7 7 7
13 13 13 13 14 14 15 15 15 15 15 15 15 15 15 15 15 16 15 15 15 15 15 14 14 14 13 12 12 12 11 11 10 9 9 9 8 9 8 8 7 7 7
14 14 14 15 15 15 15 16 16 16 16 16 16 16 16 16 16 16 16 15 15 15 15 15 15 15 15 14 13 13 12 12 11 10 10 10 10 10 9 8 9 8 7
16 16 16 16 16 16 16 16 17 16 17 17 17 17 16 16 16 16 16 16 15 16 15 16 16 15 14 13 14 13 13 13 12 12 11 11 10 8 7 7 8 8 8
18 18 18 18 17 17 17 17 17 17 17 17 17 17 17 16 16 15 15 15 15 15 15 15 16 16 14 12 12 12 13 12 12 12 12 12 11 11 11 11 10 9 9
19 19 19 18 17 18 17 17 17 17 16 17 17 17 17 16 16 16 15 15 15 15 15 15 15 16 15 10 12 14 13 14 12 13 12 11 11 11 12 13 14 14 14
18 18 18 18 18 18 17 17 17 17 17 17 17 16 16 16 15 15 15 15 13 13 12 14 15 14 14 12 13 13 14 15 14 14 14 13 12 11 10 11 12 12 13
17 17 17 18 18 17 17 17 18 17 17 17 17 16 15 15 15 15 15 13 12 12 12 12 13 13 12 11 14 14 12 13 15 14 14 14 14 11 9 11 12 12 11
16 16 17 18 17 17 16 17 17 17 17 16 15 15 15 14 14 14 13 12 11 11 10 11 11 12 12 11 14 15 11 12 12 12 13 13 13 10 10 12 13 13 12
17 17 17 16 16 16 16 17 17 17 17 16 15 14 14 13 13 12 11 10 10 10 10 10 10 11 11 11 13 15 11 11 11 10 10 10 14 13 11 12 12 11 9
17 17 16 15 15 15 15 16 17 17 16 15 15 14 13 12 11 10 9 9 8 8 8 8 9 8 9 10 12 15 14 11 11 10 9 6 11 12 12 11 11 9 8
16 16 16 16 16 15 15 16 16 16 15 15 14 13 13 11 10 9 9 8 7 6 6 6 6 7 6 7 11 14 14 13 11 9 6 2 7 9 10 13 11 10 10
15 15 16 16 16 16 15 15 15 15 14 14 13 12 11 10 9 7 6 5 5 5 5 5 5 5 5 5 7 9 11 12 12 11 8 8 7 8 8 7 11 11 10
14 14 14 15 16 16 15 15 15 14 14 13 12 11 10 9 8 6 4 5 4 3 5 4 4 4 4 3 2 4 5 6 6 7 8 8 9 9 9 9 9 9 10
14 14 15 15 16 16 15 14 14 13 13 11 10 8 8 7 6 6 4 2 4 3 4 5 5 4 1 1 2 1 1 1 2 5 8 8 9 9 9 9 9 9 9
Wind_Direction
65 60 60 64 72 75 83 91 95 94 223 243 258 258 261 267 273 268 270 265 254 240 237 243 229 233 241 250 250 244 235 238 239 246 248 239 234 237 238 236 241 228 224
67 63 64 69 73 79 90 98 103 144 242 251 265 268 282 277 276 286 287 278 266 247 237 239 239 230 238 243 246 243 248 238 221 239 249 238 210 209 221 220 220 228 219
60 63 64 65 67 67 65 78 65 358 317 291 269 260 236 244 251 250 251 271 273 258 258 251 250 239 232 230 232 234 235 237 224 228 247 252 238 187 186 211 213 212 222
66 67 66 62 59 57 54 66 61 49 309 273 282 293 299 298 299 287 284 283 293 288 275 268 261 256 246 235 235 231 232 235 234 213 233 262 303 261 194 193 192 200 216
68 64 49 28 20 3 329 281 214 222 256 273 265 263 272 278 272 281 271 276 271 275 277 278 269 263 258 245 243 237 236 232 239 233 218 219 225 244 256 218 193 198 206
73 63 10 309 298 281 270 264 256 258 263 267 271 272 274 274 275 269 273 264 260 255 272 276 267 260 260 242 237 242 239 244 244 245 237 225 222 222 231 232 221 217 206
301 296 287 282 285 283 282 279 275 271 265 262 260 260 261 259 254 261 258 265 269 258 243 268 269 273 266 257 248 238 246 246 246 244 241 240 241 239 239 244 235 229 216
293 293 292 290 289 290 285 278 275 274 272 267 264 261 258 259 263 257 270 262 264 264 246 241 243 250 255 258 252 251 242 244 248 248 247 247 246 243 240 241 242 236 227
312 306 306 305 303 303 299 293 286 281 276 273 269 263 259 263 269 263 254 258 253 249 232 233 236 240 243 252 260 264 260 254 248 249 244 243 245 244 243 243 242 242 242
319 317 314 315 314 308 303 297 290 286 283 278 272 270 266 262 261 260 261 263 260 254 244 237 235 233 235 235 240 252 248 250 252 253 253 248 245 243 240 239 241 243 249
325 323 320 320 316 313 310 305 298 292 286 282 280 277 272 268 263 259 259 257 254 251 246 241 238 236 235 233 232 242 244 245 250 252 247 246 251 249 244 238 237 238 239
324 324 322 320 317 315 314 309 304 300 296 291 286 280 277 273 268 263 261 259 257 253 248 245 241 240 238 234 235 240 241 241 244 247 249 248 247 241 246 244 239 237 236
323 322 322 321 317 317 316 311 307 303 300 298 294 288 283 277 274 272 268 263 260 257 253 247 243 242 241 239 236 240 243 243 241 241 246 249 249 246 242 239 240 238 236
324 322 321 318 318 315 313 311 308 306 304 300 296 292 288 283 279 275 272 267 261 256 253 249 244 242 239 237 235 235 239 244 244 240 241 244 245 244 244 241 237 238 237
324 324 322 320 318 315 313 310 309 308 305 301 296 293 290 286 281 277 274 271 267 260 255 252 246 241 237 235 234 233 235 239 242 242 240 240 240 248 251 256 247 237 233
325 324 322 321 318 316 313 312 309 308 305 301 298 296 294 290 286 281 277 274 269 264 260 254 249 243 239 226 214 228 240 239 239 243 243 242 230 225 224 239 254 260 250
325 323 322 320 318 315 315 312 309 307 302 299 297 295 293 290 288 284 280 276 272 268 262 255 250 246 242 222 202 212 236 241 241 243 242 244 238 222 231 224 223 235 242
323 323 321 319 317 318 316 312 309 307 304 300 296 295 294 292 291 288 283 279 274 268 263 256 249 245 238 212 205 206 230 242 241 240 240 240 245 238 234 241 238 234 229
323 321 320 319 319 318 318 315 310 308 306 303 301 302 300 297 294 289 286 282 276 269 261 255 250 245 240 213 201 205 232 236 238 238 238 238 239 229 214 238 245 244 240
323 322 321 320 319 320 319 313 311 310 309 309 307 304 299 296 292 290 289 284 280 275 265 254 248 242 238 216 200 204 229 234 235 232 234 231 236 228 202 232 241 241 237
323 323 323 321 320 319 317 313 312 312 315 314 309 304 300 296 291 288 286 283 278 273 264 260 252 243 238 215 197 203 228 233 234 236 231 224 198 211 211 228 245 247 249
326 327 324 321 320 321 319 316 316 319 318 314 310 306 302 297 295 293 289 284 277 271 264 259 253 243 233 224 202 198 216 240 240 241 244 230 175 194 208 221 237 240 243
327 326 324 321 321 324 324 320 320 320 319 315 312 310 306 299 295 292 288 284 275 266 261 253 249 244 229 207 197 197 206 218 236 245 248 208 166 190 212 223 226 224 226
327 326 325 322 323 325 325 321 319 319 316 314 313 311 309 306 305 298 290 283 276 268 260 255 252 246 232 218 204 202 202 206 222 236 220 196 198 228 250 220 209 221 223
326 326 325 324 324 325 324 324 323 321 317 315 315 314 311 310 309 306 303 298 297 291 277 280 268 256 246 231 210 232 220 220 216 221 225 222 214 214 219 222 221 216 211
327 327 326 326 325 325 325 327 327 325 323 321 320 318 316 316 314 314 310 263 270 271 255 268 282 279 256 132 148 182 213 228 219 228 228 226 224 223 221 220 216 212 210